Hayward, CA

8:50 AM PDT on August 20, 2017 (GMT -0700)
Hayward Executive

Weather History for KHWD - July, 2013

Change the Weather History Date:

Saturday, July 20, 2013

  Actual Average Record
Temperature  
Mean Temperature 65 °F 65 °F  
Max Temperature 75 °F 73 °F 89 °F (2003)
Min Temperature 55 °F 58 °F 54 °F (2008)
Degree Days  
Heating Degree Days 0    
Month to date heating degree days 13  
Since 1 June heating degree days 60  
Since 1 July heating degree days 13  
Cooling Degree Days 0    
Month to date cooling degree days 44  
Year to date cooling degree days 144  
Since 1 June cooling degree days 97  
Growing Degree Days 14 (Base 50)    
Moisture  
Dew Point 54 °F    
Average Humidity 73    
Maximum Humidity 93    
Minimum Humidity 53    
Precipitation  
Precipitation 0.00 in - 0.00 in (2017)
Month to date precipitation 0.00  
Year to date precipitation 1.49  
Since 1 July precipitation 0.00  
Sea Level Pressure  
Sea Level Pressure 29.85 in    
Wind  
Wind Speed 8 mph (NW)    
Max Wind Speed 18 mph    
Max Gust Speed 21 mph    
Visibility 10 miles    
Events      
T = Trace of Precipitation, MM = Missing Value Source: NWS Daily Summary

Daily Weather History Graph

Daily Weather History Graph

Search for Another Location

Airport or City:

Trip Planner

Search our weather history database for the weather conditions in past years. The results will help you decide how hot, cold, wet, or windy it might be!

Date:

Astronomy

Jul. 20, 2013 Rise Set
Actual Time 6:02 AM PDT 8:26 PM PDT
Civil Twilight 5:32 AM PDT 8:56 PM PDT
Nautical Twilight 4:55 AM PDT 9:33 PM PDT
Astronomical Twilight 4:14 AM PDT 10:13 PM PDT
Moon 6:35 PM PDT 3:48 AM PDT
Length of Visible Light 15h 23m
Length of Day
14h 23m
Waxing Gibbous, 94% of the Moon is Illuminated
Jul 20
Waxing Gibbous
Jul 22
Full
Jul 29
Last Quarter
Aug 6
New
Aug 14
First Quarter

Hourly Weather History & Observations

Time (PDT) Temp. Dew Point Humidity Pressure Visibility Wind Dir Wind Speed Gust Speed Precip Events Conditions
12:54 AM 57.0 °F 53.1 °F 87% 29.90 in 9.0 mi West 5.8 mph - N/A   Overcast
1:54 AM 57.0 °F 54.0 °F 89% 29.90 in 9.0 mi NW 4.6 mph - N/A   Overcast
2:54 AM 55.9 °F 53.1 °F 90% 29.89 in 9.0 mi WNW 11.5 mph - N/A   Overcast
3:54 AM 55.9 °F 53.1 °F 90% 29.89 in 10.0 mi NW 5.8 mph - N/A   Overcast
4:54 AM 55.9 °F 53.1 °F 90% 29.88 in 10.0 mi NNW 3.5 mph - N/A   Overcast
5:54 AM 55.9 °F 53.1 °F 90% 29.88 in 10.0 mi West 4.6 mph - N/A   Overcast
6:54 AM 55.9 °F 53.1 °F 90% 29.89 in 10.0 mi Calm Calm - N/A   Overcast
7:54 AM 57.0 °F 53.1 °F 87% 29.89 in 10.0 mi Variable 3.5 mph - N/A   Overcast
8:01 AM 57.2 °F 53.6 °F 88% 29.86 in 10.0 mi Variable 3.5 mph - N/A   Overcast
8:42 AM 57.2 °F 53.6 °F 88% 29.86 in 10.0 mi WNW 4.6 mph - N/A   Overcast
8:54 AM 57.0 °F 53.1 °F 87% 29.89 in 10.0 mi West 3.5 mph - N/A   Overcast
9:54 AM 59.0 °F 54.0 °F 83% 29.89 in 10.0 mi WNW 3.5 mph - N/A   Overcast
10:54 AM 62.1 °F 55.0 °F 78% 29.88 in 10.0 mi West 5.8 mph - N/A   Mostly Cloudy
11:03 AM 62.6 °F 55.4 °F 77% 29.85 in 10.0 mi NW 4.6 mph - N/A   Scattered Clouds
11:54 AM 66.0 °F 55.9 °F 70% 29.87 in 10.0 mi WNW 4.6 mph - N/A   Clear
12:54 PM 69.1 °F 55.0 °F 61% 29.85 in 10.0 mi West 9.2 mph - N/A   Clear
1:54 PM 72.0 °F 55.9 °F 57% 29.84 in 10.0 mi West 8.1 mph - N/A   Clear
2:54 PM 73.0 °F 55.0 °F 53% 29.82 in 10.0 mi West 10.4 mph - N/A   Clear
3:54 PM 73.9 °F 55.9 °F 53% 29.81 in 10.0 mi WNW 11.5 mph - N/A   Clear
4:54 PM 71.1 °F 54.0 °F 55% 29.79 in 10.0 mi WNW 16.1 mph - N/A   Clear
5:54 PM 66.0 °F 53.1 °F 63% 29.79 in 10.0 mi NW 15.0 mph - N/A   Clear
6:54 PM 64.0 °F 53.1 °F 67% 29.79 in 10.0 mi NW 12.7 mph - N/A   Clear
7:54 PM 61.0 °F 53.1 °F 75% 29.81 in 10.0 mi NNW 10.4 mph - N/A   Clear
8:54 PM 57.0 °F 52.0 °F 83% 29.83 in 10.0 mi NNW 10.4 mph - N/A   Clear
9:54 PM 55.9 °F 52.0 °F 87% 29.84 in 10.0 mi NNW 8.1 mph - N/A   Clear
10:54 PM 55.9 °F 52.0 °F 87% 29.84 in 10.0 mi NNW 6.9 mph - N/A   Clear
11:54 PM 55.0 °F 52.0 °F 89% 29.84 in 10.0 mi North 9.2 mph - N/A   Partly Cloudy